Flag for Congo Weather past 2 weeks in Pointe-Noire, Congo

Now
72 °F

Passing clouds.


Feels Like: 71 °F
Forecast: 69 / 76 °F
Wind: 9 mph from South

Location: Pointe Airport-Noire

Current Time: Aug 2, 2015 at 6:25:33 PM

Latest Report: Aug 2, 2015 at 6:00 PM


Visibility: 4 mi

Pressure: 29.92 "Hg

Humidity: 83%

Dew point: 66 °F

Location of Pointe-NoireLocation

Historic Weather in Pointe-Noire — Graph

°F

Pointe-Noire temperature yesterday

Maximum temperature yesterday: 79 °F (at 2:00 PM)
Minimum temperature yesterday: 66 °F (at 3:00 AM)
Average temperature yesterday: 72 °F

Past Weeks' High & Low Weather Summary

 TemperatureHumidityPressure
High81 °F (Jul 22, 11:00 AM)100% (Jul 30, 11:00 PM)30.09 "Hg (Jul 30, 11:00 PM)
Low66 °F (Jul 31, 1:00 AM)47% (Aug 1, 7:00 PM)29.92 "Hg (Jul 19, 3:00 PM)
Average72 °F85%30.00 "Hg
* Reported Jul 18 5:00 PM — Aug 2 5:00 PM, Pointe-Noire, Weather by CustomWeather, © 2015

Note: Actual official high and low records may vary slightly from our data, if they occured in-between our weather recording intervals... More about our weather records

Advertising

Pointe-Noire weather history for previous 24 hours

 ConditionsComfort  
Time TempWeatherWind HumidityBarometerVisibility
5:00 PM
Sun, Aug 2
73 °FScattered clouds.9 mph78%29.92 "Hg5 mi
4:00 PM73 °FScattered clouds.9 mph78%29.92 "Hg5 mi
3:00 PM75 °FScattered clouds.12 mph78%29.95 "Hg5 mi
2:00 PM77 °FScattered clouds.13 mph65%29.95 "HgN/A
1:00 PM77 °FScattered clouds.9 mph65%29.98 "HgN/A
12:00 PM75 °FScattered clouds.13 mph69%30.01 "HgN/A
11:00 AM75 °FScattered clouds.8 mph74%30.01 "HgN/A
10:00 AM73 °FScattered clouds.7 mph78%30.04 "HgN/A
9:00 AM72 °FPassing clouds.6 mph83%30.04 "Hg4 mi
8:00 AM70 °FFog.5 mph88%30.01 "Hg2 mi
7:00 AM66 °FFog.2 mph94%30.01 "Hg2 mi
6:00 AM66 °FFog.2 mph94%29.98 "Hg2 mi
5:00 AM66 °FFog.1 mph100%29.98 "Hg2 mi
4:00 AM66 °FPassing clouds.2 mph100%29.98 "Hg4 mi
3:00 AM68 °FPassing clouds.2 mph94%30.01 "Hg4 mi
1:00 AM68 °FPassing clouds.2 mph94%30.01 "Hg4 mi
12:00 AM70 °FPassing clouds.3 mph94%30.04 "Hg4 mi
11:00 PM
Sat, Aug 1
70 °FPassing clouds.6 mph94%30.01 "Hg4 mi
10:00 PM70 °FClear.7 mph94%30.01 "Hg4 mi
9:00 PM72 °FPassing clouds.6 mph88%30.01 "Hg4 mi
8:00 PM72 °FPassing clouds.8 mph88%29.98 "Hg4 mi
7:00 PM72 °FPassing clouds.7 mph47%29.95 "Hg4 mi
6:00 PM73 °FPassing clouds.9 mph78%29.95 "Hg5 mi
Weather by CustomWeather, © 2015

See weather overviewHow to use our weather pages